Location: Brantley
(31.5822°N, 86.2569°W)
Time: 13:32:53
(UTC+00:00)

Courier 1B - Pass Details

Date: 23 February 2026
Orbit: 962 x 1208 km, 28.3° (Epoch: 11 March)

Event Time Altitude Azimuth Distance (km) Brightness Sun altitude
Rises 21:33:47 0° 224° (SW) 3,653 11.7 24.1°
Reaches altitude 10° 21:36:44 10° 213° (SSW) 2,730 11.1 23.5°
Maximum altitude 21:42:19 29° 155° (SSE) 1,752 9.1 22.5°
Drops below altitude 10° 21:48:10 10° 98° (E) 2,865 9.6 21.4°
Sets 21:51:19 0° 88° (E) 3,865 10.1 20.8°
